Regional Weather Roundup
Issued by NWS

Home | Current Version | Previous Version | Graphics & Text | Print | Product List | Glossary On
Versions: 1 2 3 4 5 6 7 8 9 10 11 12 13 14 15 16 17 18 19 20 21 22 23 24 25 26 27 28 29 30 31 32 33 34 35 36 37 38 39 40 41 42 43 44 45 46 47 48 49 50
000
ASUS43 KDMX 022307
RWRIA

WEATHER ROUNDUP FOR IOWA
NATIONAL WEATHER SERVICE DES MOINES IA
600 PM CDT THU JUL 02 2015

NOTE: "FAIR" INDICATES FEW OR NO CLOUDS BELOW 12,000 FEET WITH NO
SIGNIFICANT WEATHER AND/OR OBSTRUCTIONS TO VISIBILITY.

* - THESE STATIONS ARE NOT NWS STATIONS...THUS NOT UNDER NWS
QUALITY CONTROL.  THEY ALSO DO NOT REPORT WEATHER SUCH
AS PRECIPITATION OR FOG.

IAZ001>003-012>014-020>022-031>034-043>046-030000-
   NORTHWEST IOWA

CITY           SKY/WX    TMP DP  RH WIND       PRES   REMARKS
CARROLL *      SUNNY     66  57  72 E10       29.99S
CHEROKEE *     CLOUDY    68  59  73 SE6       29.99S
DENISON *      SUNNY     66  63  88 E8        29.97S
LE MARS *      PTSUNNY   68  59  73 SE7       30.00S
ORANGE CITY *  SUNNY     68  57  68 SE3       30.00S
SHELDON *      SUNNY     70  59  68 SE8       29.98F
SIOUX CITY     CLOUDY    67  60  78 E9        29.98S
SPENCER        CLOUDY    70  48  45 SE6       30.00F
STORM LAKE *   PTSUNNY   66  57  72 SE7       30.00F
$$

IAZ055>058-069>071-079>083-090>094-030000-
   SOUTHWEST IOWA

CITY           SKY/WX    TMP DP  RH WIND       PRES   REMARKS
ATLANTIC *     CLOUDY    68  61  77 E12       29.97S
AUDUBON *      SUNNY     66  57  72 SE9       29.99F
CLARINDA *     CLOUDY    72  63  73 E7        29.97S
COUNCIL BLFS * CLOUDY    70  63  78 E7        29.96S
CRESTON *      SUNNY     70  57  64 E9        29.97S
HARLAN  *      CLOUDY    68  66  94 E10       29.99F
LAMONI         CLOUDY    68  60  75 E3        29.96S
RED OAK *      PTSUNNY   72  63  73 E9        29.95F
SHENANDOAH *   CLOUDY    72  66  83 SE8       29.95S
$$

IAZ047>049-059>061-072>074-084-030000-
   CENTRAL IOWA

CITY           SKY/WX    TMP DP  RH WIND       PRES   REMARKS
AMES           CLOUDY    68  52  56 SE5       29.99S
ANKENY *       MOSUNNY   68  57  68 CALM      29.98S
CHARITON *     SUNNY     68  52  56 E8        29.97F
DES MOINES     CLOUDY    68  54  60 CALM      29.97F
GRINNELL*      CLOUDY    68  54  60 E3        29.99S
KNOXVILLE *    SUNNY     70  52  52 NE3       29.96F
MARSHALLTOWN   CLOUDY    68  55  63 SE3       29.98S
PELLA *        CLOUDY    68  57  68 CALM      29.99R
PERRY *        PTSUNNY   66  55  68 E3        29.99S
$$

IAZ004>006-015-016-023>025-035-036-030000-
   NORTH CENTRAL IOWA

CITY           SKY/WX    TMP DP  RH WIND       PRES   REMARKS
ALGONA *       SUNNY     70  50  49 SE7       30.00F
CLARION *      SUNNY     70  52  52 S7        30.00S
ESTHERVILLE    MOSUNNY   69  53  56 S5        30.00S
FORT DODGE *   CLOUDY    68  52  56 SE6       30.00F
MASON CITY     PTSUNNY   73  53  49 S3        30.01F
FOREST CITY *  SUNNY     70  54  56 CALM      30.00S
IOWA FALLS *     N/A     70  54  56 CALM      30.01R
$$

IAZ007>011-017>019-026>030-037>042-050>054-066-030000-
   NORTHEAST IOWA

CITY           SKY/WX    TMP DP  RH WIND       PRES   REMARKS
CEDAR RAPIDS   CLOUDY    69  54  58 NE9       29.97S
CHARLES CITY * SUNNY     72  54  53 CALM      30.00S
CLINTON *      CLOUDY    70  54  56 NE8       29.99F
DECORAH *        N/A    N/A N/A N/A MISG        N/A
DUBUQUE        PTSUNNY   69  50  50 NE6       29.99S
MONTICELLO *   SUNNY     70  54  56 E6        29.97F
OELWEIN *        N/A     72  55  56 E6        29.99S
WATERLOO       CLOUDY    71  54  54 SE6       29.98S
$$

IAZ064-065-067-068-078-030000-
   EAST CENTRAL IOWA

CITY           SKY/WX    TMP DP  RH WIND       PRES   REMARKS
DAVENPORT      CLOUDY    69  55  60 NE10      29.97F
IOWA CITY      CLOUDY    70  53  54 NE8       29.97F
MT. PLEASANT * CLOUDY    73  50  43 NE7       29.96S
MUSCATINE *    SUNNY     70  54  56 NE10      29.96S
QUAD CITIES    CLOUDY    70  57  63 E8        29.96F
$$

IAZ062-063-075>077-085>089-095>099-030000-
   SOUTHEAST IOWA

CITY           SKY/WX    TMP DP  RH WIND       PRES   REMARKS
BURLINGTON     CLOUDY    70  59  68 CALM      29.95S
FAIRFIELD *    SUNNY     70  54  56 E7        29.96F
FORT MADISON * SUNNY     68  59  73 NE3       29.96S
KEOKUK *       SUNNY     70  61  73 CALM      29.94F
OSKALOOSA *      N/A     70  54  56 CALM      29.97F
CENTERVILLE *  MOSUNNY   66  55  68 NE7       29.97F
OTTUMWA        CLOUDY    70  52  52 E6        29.95F
WASHINGTON *   SUNNY     70  54  56 E6        29.98S
$$

ABBREVIATIONS USED IN REMARKS
   TC - TEMPERATURES IN CELSIUS
  WCI - WIND CHILL INDEX
   HX - HEAT INDEX
  VSB - VISIBILITY
$$



USA.gov is the U.S. government's official web portal to all federal, state and local government web resources and services.